OpenBCM V1.13 (Linux)

Packet Radio Mailbox

DB0FHN

[JN59NK Nuernberg]

 Login: GUEST





  
I0OJJ  > AMSAT    29.06.26 02:39l 325 Lines 15347 Bytes #999 (0) @ WW
BID : 2QX_IR0EQ
Read: GUEST OE5RCO DJ6UX
Subj: 2Line Orbital Elements
Path: DB0FHN<OE2XZR<OK1TOR<SR6DWH<SR1BSZ<EA2RCF<IR0EQ
Sent: 260629/0027z @:IR0EQ.ITA.EU [Rome] $:2QX_IR0EQ

>From i0ojj@rgate.ampr.org Mon Jun 29 02:27:21 2026
Received: from rgate.ampr.org by rgate.ampr.org (JNOS2.0q.1) with SMTP
	id AA3561 ; Mon, 29 Jun 2026 02:27:21 +0200
Received: by rgate.ampr.org with SMTP
	id AA3558 ; Mon, 29 Jun 2026 02:27:02 +0200
Message-Id: <3559@rgate.ampr.org>
>From: i0ojj@rgate.ampr.org

SB KEPS @ AMSAT  $ORB26180.1
2Line Orbital Elements 26180.AMSAT

QST de W1STR

AMSAT Orbital Elements for Amateur Satellites in TLE Format
>From Orbital Analysis Office
New England Sci-Tech STEM Education Center
Natick MA June 29, 2026
To all radio amateurs


These element sets describe the orbits of various satellites 
in use by the amateur radio community. For details see:
www.amsat.org/keplerian-elements-formats/

A daily update of element sets is available at:
www.amsat.org/tle/daily-bulletin.txt
or without bulletin text:
www.amsat.org/tle/dailytle.txt


AO-07
1 07530U 74089B   26179.64623733 -.00000026  00000-0  12547-3 0  9993
2 07530 101.9899 193.0123 0012647 108.8638   8.4309 12.53698301361953
UO-11
1 14781U 84021B   26179.49748480  .00001230  00000-0  13064-3 0  9998
2 14781  97.8063 144.9461 0008586 137.7568 222.4313 14.90810480258815
LO-19
1 20442U 90005G   26179.62402342  .00000109  00000-0  55609-4 0  9993
2 20442  98.8846 201.7446 0011783 167.3246 192.8236 14.34126405904037
AO-27
1 22825U 93061C   26179.60722290  .00000085  00000-0  49416-4 0  9992
2 22825  98.6877 247.0164 0009450  70.3201 289.9000 14.30945069708634
FO-29
1 24278U 96046B   26179.54904671 -.00000019  00000-0  14056-4 0  9990
2 24278  98.5229  26.8641 0350869  67.0358 296.7398 13.53274843474703
GO-32
1 25397U 98043D   26179.58423380  .00000050  00000-0  41977-4 0  9995
2 25397  99.0072 172.6305 0001621 141.9335 218.1958 14.24430518452956
ISS
1 25544U 98067A   26179.54140602  .00005887  00000-0  11310-3 0  9994
2 25544  51.6322 243.8877 0004260 242.8085 117.2470 15.49467065573511
NO-44
1 26931U 01043C   26179.54409891  .00000092  00000-0  65165-4 0  9992
2 26931  67.0491 214.8978 0006040 265.3473  94.6939 14.31959587292071
SO-50
1 27607U 02058C   26179.48384614  .00000884  00000-0  12164-3 0  9997
2 27607  64.5520  94.0340 0074995 260.3690  98.8938 14.83069301266134
CO-55
1 27844U 03031E   26179.48757997  .00000272  00000-0  13667-3 0  9990
2 27844  98.6736 187.9043 0010221 146.4668 213.7159 14.24342303193286
RS-22
1 27939U 03042A   26179.62557623  .00001005  00000-0  16299-3 0  9996
2 27939  98.3468   4.3078 0010114 228.5620 219.2761 14.73486907217236
CO-65
1 32785U 08021C   26179.58410836  .00004402  00000-0  27821-3 0  9999
2 32785  97.8271 161.2403 0008595   2.5543 357.5728 15.09555814986917
CO-66
1 32791U 08021J   26179.49368697  .00016499  00000-0  51759-3 0  9999
2 32791  97.7514 177.9337 0000910 202.7139 157.4063 15.33128545989029
RS-30
1 32953U 08025A   26179.60682442  .00000017  00000-0  49707-4 0  9993
2 32953  82.5042 348.3353 0018523 287.5516  72.3540 12.43179989821114
SRMSAT
1 37841U 11058D   26179.52740243  .00000375  00000-0  59605-4 0  9994
2 37841  19.9735 350.8310 0011741 329.1506  73.8720 14.11577807759424
ZACUBE-1
1 39417U 13066B   26179.47190809  .00002698  00000-0  21104-3 0  9999
2 39417  97.8045 141.8666 0042379 209.3723 150.5119 15.01247947682426
Delfi-N3xt
1 39428U 13066N   26179.01992921  .00004760  00000-0  41538-3 0  9991
2 39428  97.8343  99.3219 0074431 169.3512 190.9306 14.95184915676241
GOMX-1
1 39430U 13066Q   26179.62545140  .00001824  00000-0  27794-3 0  9994
2 39430  97.6480  19.3665 0129661  41.2345 319.8567 14.69498597671598
LO-74
1 39440U 13066AA  26179.58443150  .00004053  00000-0  37527-3 0  9990
2 39440  97.8905 128.6113 0057204 351.3387   8.6839 14.93851998678697
AO-73
1 39444U 13066AE  26179.45788280  .00006401  00000-0  39597-3 0  9994
2 39444  97.8276 151.1398 0036836 162.5182 197.7324 15.09621583681361
DTUSAT-2
1 40030U 14033W   26179.46545723  .00006318  00000-0  34061-3 0  9994
2 40030  98.0860 177.9094 0007818 183.4828 176.6350 15.15155687654394
LILACSAT-2
1 40908U 15049K   26179.62270515  .00016511  00000-0  27751-3 0  9992
2 40908  97.4632 216.9005 0006647 195.6057 164.4992 15.51815407597523
Horyu-4
1 41340U 16012D   26179.58501936  .01302903  11103-2  11194-2 0  9998
2 41340  30.9814 354.5243 0009577 338.1481  21.8776 16.12369922572647
Lapan A3
1 41603U 16040E   26179.61306774  .00003120  00000-0  99569-4 0  9992
2 41603  97.1487 175.3836 0009458 345.3903  14.7065 15.33176772556560
CAS-2T
1 41847U 16066G   26179.46064137  .00001594  00000-0  22985-3 0  9997
2 41847  98.3821 255.0681 0342884  95.3928 268.6474 14.44729722506425
TechnoSat
1 42829U 17042E   26179.41914400  .00002434  00000-0  17492-3 0  9996
2 42829  97.4291 336.6508 0019122  59.2633 301.0474 15.05025259488398
AO-91
1 43017U 17073E   26179.58479444  .00006671  00000-0  29239-3 0  9991
2 43017  97.4690  46.5670 0148535 289.4918  69.0319 15.12867010467115
S-Net D
1 43186U 18014G   26179.54543119  .00005001  00000-0  25802-3 0  9999
2 43186  97.5360  84.2655 0007677 352.7322   7.3799 15.16775504460483
S-Net B
1 43187U 18014H   26179.62307825  .00005029  00000-0  25961-3 0  9997
2 43187  97.5363  84.3296 0008141 346.4195  13.6818 15.16746001460497
S-Net A
1 43188U 18014J   26179.47827560  .00005036  00000-0  25970-3 0  9992
2 43188  97.5374  84.3969 0008061 348.0349  12.0692 15.16783506460479
S-Net C
1 43189U 18014K   26179.62701191  .00004923  00000-0  25424-3 0  9999
2 43189  97.5390  84.6210 0009158 337.6520  22.4313 15.16737862459043
Ten-Koh
1 43677U 18084G   26179.50828492  .00001372  00000-0  10691-3 0  9994
2 43677  98.0746  12.3492 0011038  81.8837 278.3639 15.02977493417863
PO-101
1 43678U 18084H   26179.57331154  .00002144  00000-0  17512-3 0  9993
2 43678  98.1202  16.2785 0013061 134.7071 225.5218 15.00500751417927
QO-100
1 43700U 18090A   26179.59552284  .00000000  00000-0  00000-0 0  9997
2 43700   0.0277  21.9304 0002234 109.9138  25.0182  1.00270705 27798
MinXSS-2
1 43758U 18099A   26179.53892067  .00033972  00000-0  65686-3 0  9997
2 43758  97.4539 256.1605 0007619 212.8960 147.1817 15.47665141415887
AO-95
1 43770U 18099N   26179.61231892  .00010033  00000-0  38164-3 0  9997
2 43770  97.4385 239.8174 0007055 311.8599  48.2037 15.26945463414969
SNUSat 2
1 43782U 18099AA  26178.72166001  .00007592  00000-0  33526-3 0  9993
2 43782  97.4058 231.9436 0008670 254.2739 105.7541 15.21990195414633
SnugLite
1 43784U 18099AC  26179.60926087  .00010828  00000-0  40596-3 0  9992
2 43784  97.3869 233.7777 0001880 212.2852 147.8273 15.27420670415067
ITASat 1
1 43786U 18099AE  26179.61472012  .00006373  00000-0  30556-3 0  9994
2 43786  97.4026 230.8987 0011063 317.4387  42.5989 15.19194225414644
EAGLET 1
1 43790U 18099AJ  26178.89926950  .00004036  00000-0  23194-3 0  9997
2 43790  97.4227 228.2841 0009743 313.9557  46.0870 15.13014927413959
ESEO
1 43792U 18099AL  26179.62167342  .00001160  00000-0  87430-4 0  9992
2 43792  97.3971 216.5209 0010153 299.1737  60.8474 15.04281708413526
JO-97
1 43803U 18099AX  26179.44736791  .00016830  00000-0  51325-3 0  9998
2 43803  97.4130 242.3225 0005223 213.7756 146.3154 15.34004441415355
Suomi 100
1 43804U 18099AY  26179.59704374  .00011535  00000-0  41574-3 0  9999
2 43804  97.4183 239.9487 0008880 232.2115 127.8322 15.28672773415165
ISAT
1 43879U 18111D   26179.34279428  .00099724  00000-0  91688-3 0  9993
2 43879  97.5866 115.4381 0003975 162.4018 197.7380 15.67363365412910
UWE-4
1 43880U 18111E   26179.53872594  .00031577  00000-0  62946-3 0  9996
2 43880  97.5851 108.4577 0004276 280.8258  79.2510 15.46817375412530
Sparrow
1 43881U 18111F   26179.36891999  .00189152  00000-0  10953-2 0  9991
2 43881  97.6097 121.2993 0005153 134.5394 225.6293 15.78030471413131
Prox-1
1 44339U 19036A   26179.63724585  .00012707  00000-0  12286-2 0  9995
2 44339  23.9960  37.7505 0005531 166.8651 193.1993 14.90887056375185
Taurus 1
1 44530U 19059C   26179.59346270  .00003291  00000-0  53049-3 0  9990
2 44530  98.6415 345.1297 0007304 274.3468  85.6902 14.72205818360322
TO-108
1 44881U 19093C   26179.62245478  .00001165  00000-0  13743-3 0  9994
2 44881  97.7533 251.5756 0014837  53.0661 307.1912 14.86537641353117
RS-44
1 44909U 19096E   26179.65418213  .00000012  00000-0 -51329-5 0  9995
2 44909  82.5227 332.0842 0218503 117.4694 244.8808 12.79749005303810
SALSAT
1 46495U 20068K   26179.59166665  .00006710  00000-0  23412-3 0  9992
2 46495  97.8846 183.3517 0007860 259.1040 100.9315 15.29955960317104
CSS (TIANHE-1)
1 48274U 21035A   26179.62069862  .00019914  00000-0  23071-3 0  9990
2 48274  41.4685 252.3977 0008339 172.7064 187.3897 15.61304526294955
CUTE
1 49263U 21088D   26179.54232354  .00215339  20672-4  48306-3 0  9994
2 49263  97.4130 279.9716 0005802 209.3792 150.7159 15.97727340264362
TeikyoSat 4
1 49396U 21102B   26179.58847215  .00001537  00000-0  99491-4 0  9994
2 49396  97.3666 208.6287 0010410 251.2825 108.7275 15.09545606254444
Z-Sat
1 49399U 21102E   26179.59960244  .00004057  00000-0  20021-3 0  9998
2 49399  97.3321 214.5761 0015819 201.3511 158.7065 15.18346169255170
KOSEN 1
1 49402U 21102H   26179.61013414  .00007046  00000-0  26793-3 0  9997
2 49402  97.3182 221.5457 0014407 160.7086 199.4701 15.26989864255765
HO-113
1 50466U 21131B   26179.57815890  .00000405  00000-0  13870-3 0  9998
2 50466  98.4989 271.9062 0005321  70.4372 289.7391 14.41367271236759
SNUGLITE 2
1 52899U 22065F   26179.37382365  .00000896  00000-0  17874-3 0  9993
2 52899  98.2213 324.1851 0007220 359.2253   0.8937 14.64366708212630
UmKA 1 (RS40S)
1 57172U 23091G   26179.60778577  .00005535  00000-0  25253-3 0  9997
2 57172  97.5049 238.2612 0014230  82.4085 277.8766 15.20946434165743
